Flag for Romania Weather past 2 weeks in Cluj-Napoca, Romania

Now
41 °F

Scattered clouds.


Feels Like: 32 °F
Forecast: 25 / 37 °F
Wind: 18 mph from West

Location: Cluj Airport-Napoca

Current Time: Jan 31, 2015 at 1:43:48 PM

Latest Report: Jan 31, 2015 at 1:00 PM


Visibility: N/A

Pressure: 29.18 "Hg

Humidity: 49%

Dew point: 23 °F

Location of Cluj-NapocaLocation

Historic Weather in Cluj-Napoca — Graph

°F

Cluj-Napoca temperature yesterday

Maximum temperature yesterday: 48 °F (at 2:30 PM)
Minimum temperature yesterday: 32 °F (at 12:00 AM)
Average temperature yesterday: 41 °F

Past Weeks' High & Low Weather Summary

 TemperatureHumidityPressure
High50 °F (Jan 22, 3:00 PM)100% (Jan 16, 12:00 PM)30.21 "Hg (Jan 16, 12:00 PM)
Low25 °F (Jan 17, 7:00 AM)46% (Jan 31, 10:30 AM)28.88 "Hg (Jan 31, 4:00 AM)
Average37 °F93%29.87 "Hg
* Reported Jan 16 12:00 Noon — Jan 31 12:30 PM, Cluj-Napoca, Weather by CustomWeather, © 2014

Note: Actual official high and low records may vary slightly from our data, if they occured in-between our weather recording intervals... More about our weather records

Advertising

Cluj-Napoca weather history for previous 24 hours

 ConditionsComfort  
Time TempWeatherWind HumidityBarometerVisibility
12:30 PM
Jan 31
39 °FScattered clouds.24 mph52%29.15 "HgN/A
12:00 PM41 °FScattered clouds.17 mph61%29.12 "HgN/A
11:30 AM41 °FScattered clouds.24 mph49%29.09 "HgN/A
11:00 AM41 °FScattered clouds.16 mph57%29.06 "HgN/A
10:30 AM45 °FScattered clouds.5 mph46%29.03 "HgN/A
10:00 AM43 °FPassing clouds.7 mph61%29.03 "HgN/A
9:30 AM43 °FPassing clouds.7 mph71%29.03 "HgN/A
9:00 AM41 °FScattered clouds.7 mph76%29.00 "HgN/A
8:30 AM39 °FScattered clouds.3 mph75%29.00 "HgN/A
8:00 AM41 °FScattered clouds.12 mph70%28.97 "HgN/A
7:30 AM41 °FPassing clouds.5 mph70%28.97 "HgN/A
7:00 AM41 °FPassing clouds.6 mph76%28.94 "HgN/A
6:30 AM43 °FPassing clouds.10 mph66%28.94 "HgN/A
6:00 AM45 °FPassing clouds.22 mph61%28.94 "HgN/A
5:00 AM43 °FPassing clouds.6 mph87%28.88 "HgN/A
4:00 AM46 °FPassing clouds.12 mph76%28.88 "HgN/A
3:00 AM43 °FLight rain. Passing clouds.3 mph81%28.91 "HgN/A
2:00 AM43 °FLight rain. Passing clouds.8 mph76%28.91 "HgN/A
1:00 AM45 °FPassing clouds.12 mph71%28.91 "HgN/A
12:00 AM43 °FClear.9 mph76%28.91 "Hg10 mi
11:30 PM
Jan 30
43 °FClear.12 mph76%28.91 "Hg10 mi
11:00 PM43 °FClear.10 mph76%28.94 "Hg10 mi
10:30 PM43 °FClear.15 mph76%28.94 "Hg10 mi
10:00 PM45 °FClear.15 mph71%28.97 "Hg10 mi
9:30 PM45 °FClear.17 mph71%29.00 "Hg10 mi
9:00 PM46 °FClear.17 mph66%28.97 "Hg10 mi
8:30 PM45 °FClear.15 mph71%28.97 "Hg10 mi
8:00 PM45 °FClear.12 mph66%29.00 "Hg10 mi
7:30 PM45 °FPassing clouds.8 mph66%29.00 "HgN/A
7:00 PM45 °FPassing clouds.14 mph66%29.00 "HgN/A
6:30 PM46 °FPassing clouds.10 mph62%29.03 "HgN/A
6:00 PM46 °FPassing clouds.14 mph62%29.03 "HgN/A
5:30 PM46 °FPassing clouds.15 mph62%29.03 "HgN/A
5:00 PM46 °FScattered clouds.12 mph62%29.03 "HgN/A
4:30 PM48 °FSunny.15 mph58%29.03 "Hg10 mi
4:00 PM48 °FPassing clouds.20 mph58%29.03 "HgN/A
3:30 PM48 °FSunny.21 mph58%29.06 "Hg10 mi
3:00 PM48 °FPassing clouds.10 mph62%29.09 "HgN/A
2:30 PM48 °FPartly sunny.14 mph62%29.09 "HgN/A
2:00 PM45 °FPassing clouds.10 mph71%29.12 "HgN/A
1:30 PM43 °FSunny.8 mph76%29.15 "Hg10 mi
1:00 PM43 °FScattered clouds.13 mph71%29.15 "HgN/A
Weather by CustomWeather, © 2014

See weather overviewHow to use our weather pages